This is the latest recevied weather packets stored in our database for station/object AD8BV. If no packets are shown the sender has not sent any weather packets the latest 10 day(s).
| Time | Temp. | Humidity | Pressure | Rain* | Wind** | Luminosity | Snow |
|---|---|---|---|---|---|---|---|
| 1778112488 | 10.56° C | 52% | 1014.4 hPa | 0 mm | - | 19 W/m² | - |
| 1778112179 | 10.56° C | 47% | 1014.3 hPa | 0 mm | - | 22 W/m² | - |
| 1778111875 | 10.56° C | 49% | 1014.2 hPa | 0 mm | - | 26 W/m² | - |
| 1778111571 | 10.56° C | 47% | 1014.3 hPa | 0 mm | - | 26 W/m² | - |
| 1778111268 | 10.56° C | 48% | 1014.2 hPa | 0 mm | - | 31 W/m² | - |
| 1778110965 | 10.56° C | 47% | 1014.4 hPa | 0 mm | - | 35 W/m² | - |
| 1778110663 | 11.11° C | 47% | 1014.3 hPa | 0 mm | - | 35 W/m² | - |
| 1778110359 | 11.11° C | 47% | 1014.4 hPa | 0 mm | - | 37 W/m² | - |
| 1778110056 | 11.11° C | 47% | 1014.3 hPa | 0 mm | - | 34 W/m² | - |
| 1778109750 | 11.11° C | 47% | 1014.3 hPa | 0 mm | - | 36 W/m² | - |
| 1778109448 | 11.11° C | 50% | 1014.2 hPa | 0 mm | - | 32 W/m² | - |
| 1778109146 | 11.11° C | 46% | 1014.3 hPa | 0 mm | - | 31 W/m² | - |
| 1778108843 | 11.11° C | 45% | 1014.1 hPa | 0 mm | - | 42 W/m² | - |
| 1778108540 | 11.11° C | 47% | 1014.2 hPa | 0 mm | - | 49 W/m² | - |
| 1778108236 | 11.11° C | 46% | 1014.3 hPa | 0 mm | - | 61 W/m² | - |
| 1778107933 | 11.67° C | 48% | 1014.2 hPa | 0 mm | - | 51 W/m² | - |
| 1778107629 | 11.67° C | 48% | 1014.1 hPa | 0 mm | - | 71 W/m² | - |
| 1778107327 | 11.67° C | 45% | 1014.3 hPa | 0 mm | - | 98 W/m² | - |
| 1778107023 | 12.22° C | 44% | 1014.1 hPa | 0 mm | - | 101 W/m² | - |
| 1778106719 | 12.22° C | 44% | 1014 hPa | 0 mm | - | 108 W/m² | - |
| 1778106416 | 12.22° C | 45% | 1014 hPa | 0 mm | - | 108 W/m² | - |
| 1778106111 | 12.22° C | 47% | 1013.9 hPa | 0 mm | - | 94 W/m² | - |
| 1778105810 | 11.67° C | 46% | 1014.1 hPa | 0 mm | - | 119 W/m² | - |
| 1778105508 | 11.67° C | 47% | 1014 hPa | 0 mm | - | 75 W/m² | - |
| 1778105204 | 11.67° C | 45% | 1014.1 hPa | 0 mm | - | 75 W/m² | - |
* Rain latest hour (hover to see other rain measurements)
** Current wind speed in m/s (hover to see current wind gust speed)